Location: Hermaringen
(48.5952°N, 10.2585°E)
Time: 21:31:16
(UTC+00:00)

SJ-7 - Pass Details

Date: 18 November 2025
Orbit: 500 x 523 km, 97.7° (Epoch: 10 December)

Event Time Altitude Azimuth Distance (km) Brightness Sun altitude
Rises 17:29:27 0° 161° (SSE) 2,584 7.7 -18.5°
Reaches altitude 10° 17:31:31 10° 160° (SSE) 1,704 6.7 -18.9°
Maximum altitude 17:35:11 76° 75° (ENE) 522 3.9 -19.5°
Drops below altitude 10° 17:38:52 10° 350° (N) 1,720 6.9 -20.1°
Sets 17:40:58 0° 348° (NNW) 2,611 7.8 -20.4°
